Wetbulb
40.67 37.97 37.71 40.29 42.20 41.49 40.89 38.91 38.19 42.09 45.97 43.28 41.94 42.45 45.93 48.78 47.43 47.24 48.64 49.78 50.51 49.82 51.03 51.80 52.48 55.28 56.29 57.10 57.22 56.67 56.95 57.27 56.64 57.38 57.56 57.82 58.56 58.98 59.36 60.07 60.96 61.35 61.77 61.36
38.37 35.95 41.59 44.09 43.72 42.59 41.40 39.43 39.15 43.86 45.82 43.35 42.57 42.22 45.53 47.57 47.65 47.71 49.21 49.99 49.32 49.65 51.51 51.70 51.94 54.39 56.43 56.97 56.55 56.28 57.39 56.76 57.02 58.60 57.92 59.02 58.77 59.01 59.39 59.87 60.37 61.39 61.86 61.13
36.16 39.42 43.79 44.13 42.31 41.11 41.17 39.80 40.72 40.84 42.59 42.86 41.19 40.05 42.77 46.80 47.99 48.65 49.69 50.44 49.77 49.76 50.68 50.57 52.74 54.18 55.41 55.63 55.87 56.10 56.58 57.08 58.86 58.81 58.38 58.30 57.80 58.04 58.27 58.70 59.42 60.26 61.30 61.58
37.25 41.67 41.44 41.84 41.59 42.82 37.82 44.56 44.51 42.88 38.59 32.75 40.95 31.50 40.64 44.46 45.81 47.26 48.87 47.43 48.02 49.84 51.21 51.38 52.88 53.31 55.02 55.47 56.36 56.26 57.17 58.42 58.99 58.86 57.94 56.59 56.07 55.72 57.07 57.99 58.63 58.74 60.00 61.62
35.45 38.51 38.41 39.12 41.72 45.04 40.76 45.81 43.95 42.30 37.37 34.96 37.56 34.21 38.76 42.40 43.30 45.77 47.85 48.56 47.71 49.73 50.62 51.11 52.92 54.48 55.01 56.26 55.85 56.80 57.86 58.52 58.46 58.78 57.74 56.48 55.95 56.64 57.15 57.27 57.66 58.44 59.84 61.06
38.87 43.55 41.73 41.61 44.23 45.81 45.65 42.72 40.16 38.35 35.61 29.42 35.95 36.12 36.34 39.49 44.49 45.75 47.80 48.34 49.33 50.04 50.21 51.12 53.09 53.85 53.90 55.40 55.78 56.95 57.99 58.11 58.26 58.40 57.62 56.66 55.95 55.72 55.89 56.76 57.41 57.87 59.36 60.01
37.13 38.10 40.77 43.20 40.26 42.41 40.77 35.58 26.92 25.38 26.10 27.12 38.40 35.20 38.53 43.23 45.63 47.35 47.87 47.72 48.80 50.26 50.25 51.31 52.36 52.50 53.29 54.70 55.75 57.03 57.49 57.49 58.06 58.37 57.73 57.26 56.74 56.65 56.83 57.32 57.69 57.53 58.39 58.83
31.89 30.23 39.41 42.58 39.98 38.57 38.99 36.19 29.21 23.99 25.72 31.34 38.94 33.54 38.69 46.39 49.19 48.98 48.96 48.42 49.63 49.71 50.34 51.67 52.15 52.19 53.88 55.06 56.08 57.12 56.95 57.21 57.91 58.33 57.71 58.01 57.75 58.00 57.70 59.20 58.69 58.19 58.79 58.79
33.31 33.51 41.92 43.13 43.23 42.99 36.81 35.21 37.98 32.01 33.33 30.45 33.76 38.32 43.71 46.10 46.71 47.70 47.27 48.58 48.45 49.49 49.85 51.03 51.72 52.34 53.40 54.93 55.74 56.31 56.49 56.62 57.48 58.09 57.90 57.87 58.90 59.13 59.03 59.13 59.82 59.39 59.97 60.29
36.45 31.31 40.50 42.31 42.97 43.28 39.81 40.95 32.68 31.44 25.97 25.28 32.33 35.05 37.82 42.92 45.56 47.71 47.43 47.26 47.95 49.48 50.00 51.39 51.93 51.97 53.51 55.06 55.68 55.88 56.05 56.23 57.54 57.68 58.11 58.50 59.41 60.13 59.75 60.04 59.23 58.90 59.51 60.02
36.97 33.91 35.56 39.92 38.43 36.44 34.67 35.87 33.42 34.69 31.74 27.30 27.29 32.89 41.87 44.40 45.75 46.81 47.09 47.63 48.40 49.89 50.88 51.83 52.12 52.52 53.27 54.03 54.68 55.55 55.12 55.51 57.15 57.01 57.11 58.49 59.37 59.27 58.65 59.13 59.29 59.51 59.96 60.02
36.83 32.64 31.54 36.11 39.94 43.43 41.09 36.48 36.01 33.19 30.24 32.03 32.31 33.36 44.41 45.26 45.65 46.99 47.69 48.35 48.70 50.30 51.49 52.13 51.96 51.51 52.48 53.16 53.60 55.07 55.20 55.49 56.89 57.00 57.24 58.50 59.26 59.16 57.98 58.89 59.28 59.93 59.85 60.54
37.40 31.83 28.16 30.75 36.10 38.81 38.71 38.87 38.13 35.19 33.74 32.74 30.07 32.83 45.21 45.92 47.08 46.42 47.26 48.30 49.53 50.78 50.57 50.61 50.32 51.11 52.57 52.50 53.23 54.46 55.12 55.45 55.90 56.03 57.14 58.18 58.58 58.37 57.90 58.84 59.48 60.01 60.11 60.33
40.22 32.08 31.27 29.06 32.60 36.39 36.03 38.43 39.31 34.99 29.93 33.12 37.37 37.28 43.50 45.66 45.85 46.98 47.63 48.24 49.03 50.57 51.41 51.60 51.12 50.78 52.09 52.94 53.84 54.45 54.65 55.42 55.25 55.99 57.04 57.23 57.72 58.39 58.13 59.02 59.73 60.16 60.46 60.08
36.44 27.74 32.66 34.20 37.33 38.71 37.77 38.85 38.74 37.49 38.22 34.57 37.16 38.93 42.51 44.78 46.12 47.75 48.28 48.42 49.55 50.22 51.04 51.59 51.33 50.66 50.87 51.59 53.52 54.48 54.63 54.51 54.84 55.48 56.68 56.13 57.13 58.24 59.18 59.28 59.48 60.17 60.72 60.98
37.59 27.78 31.85 29.97 37.77 38.86 37.62 38.58 39.95 39.88 39.22 38.70 39.31 38.88 44.54 46.65 48.99 48.63 49.25 49.76 49.95 50.87 51.95 52.52 52.32 51.83 51.02 52.62 53.70 54.60 54.28 54.07 54.67 55.84 56.18 55.90 57.22 58.09 58.87 58.89 59.12 59.32 60.23 61.40
34.03 29.91 27.64 25.30 33.23 34.61 32.62 38.52 38.44 39.69 41.73 40.87 37.64 42.58 44.21 45.96 48.65 48.70 48.81 50.70 51.14 51.79 52.79 53.04 52.91 52.60 52.28 52.85 54.58 54.08 54.10 54.10 54.13 55.62 56.00 56.35 57.51 57.49 58.54 58.91 58.09 57.23 57.17 58.97
33.87 31.30 28.96 25.83 31.34 26.30 37.25 42.38 42.95 39.97 41.27 42.32 42.06 43.84 45.99 47.23 50.50 50.80 52.27 51.83 51.77 52.76 53.45 53.81 53.65 53.24 53.11 53.67 54.08 54.58 53.74 54.32 53.89 54.60 56.10 56.36 57.84 56.07 57.81 57.30 55.92 55.13 55.43 56.82
37.63 33.95 27.26 25.72 28.70 33.86 37.94 40.33 39.18 37.28 38.70 43.77 43.69 45.57 46.13 47.75 49.70 49.45 52.72 53.52 53.59 53.93 54.84 55.05 54.75 53.74 52.36 53.48 54.10 54.45 53.19 53.90 53.93 53.91 55.67 55.88 57.14 55.77 56.50 55.78 54.46 54.56 55.39 55.65
37.70 36.39 31.79 29.06 28.19 26.41 36.33 42.25 44.74 43.11 34.90 43.51 46.68 45.11 45.37 47.80 45.29 48.27 51.99 53.68 53.32 54.08 54.90 54.97 54.34 52.95 52.66 53.97 54.31 53.75 53.06 53.57 53.50 54.20 55.55 55.82 56.95 55.98 55.81 55.29 54.31 54.44 55.21 55.25
31.90 32.12 28.55 27.70 26.29 32.41 40.58 42.25 44.15 34.21 33.63 42.64 44.97 48.50 46.23 46.33 50.30 53.06 53.26 54.11 54.84 54.96 54.52 55.11 53.96 52.76 52.93 53.85 54.63 53.52 53.12 53.43 55.15 55.29 55.51 55.34 56.69 56.21 56.47 55.17 54.97 54.22 54.56 54.54
33.53 31.79 28.91 29.61 28.00 29.22 42.07 41.64 35.83 39.29 42.26 43.37 43.75 44.92 47.37 48.60 49.73 50.19 53.06 54.39 53.41 53.29 53.71 54.98 53.75 52.85 52.86 54.23 54.90 53.46 52.78 55.44 55.19 55.26 55.05 54.80 55.81 56.93 56.23 55.62 54.60 54.30 53.81 53.44
31.91 35.70 33.70 35.74 36.51 43.12 43.16 43.27 44.83 43.09 41.93 43.35 43.66 44.95 46.08 50.76 50.64 48.75 51.58 52.95 53.57 54.23 54.87 55.45 54.66 52.47 52.53 54.23 55.33 53.40 53.93 54.17 54.76 54.79 54.03 53.67 55.05 55.95 56.06 55.58 54.46 53.32 53.22 52.94
37.83 40.19 37.26 36.94 42.22 41.68 43.67 45.90 45.78 44.57 43.52 44.90 45.72 46.10 46.69 51.20 51.66 48.32 51.03 52.66 53.62 54.35 54.68 55.15 54.02 52.26 51.86 54.14 55.45 55.54 53.76 54.95 54.79 53.96 53.27 52.78 53.78 54.27 55.17 56.35 56.06 54.65 53.05 52.70
37.16 39.01 37.49 36.92 41.27 42.10 44.64 44.37 44.02 44.30 45.63 45.25 46.26 47.15 51.67 52.92 51.29 48.82 50.79 52.53 54.04 54.33 54.76 55.06 54.12 53.22 53.14 54.38 55.11 54.50 53.87 54.77 54.02 53.79 53.15 52.80 53.51 54.58 54.95 55.81 56.02 56.47 55.79 53.63
39.52 36.32 36.33 35.87 41.14 41.47 41.28 44.63 45.43 44.15 44.59 45.04 45.58 46.80 52.66 52.57 50.61 49.76 50.79 54.06 54.31 54.33 54.79 54.69 54.39 53.93 53.75 54.72 55.23 54.05 54.12 54.68 53.78 52.48 52.44 52.72 53.05 53.64 55.24 55.09 53.62 42.91 47.70 46.24
MSLP
1007.36 1007.89 1005.83 1005.06 1006.09 1006.78 1007.14 1007.40 1006.78 1005.96 1006.12 1006.27 1005.70 1005.42 1004.29 1003.35 1003.50 1003.02 1002.37 1002.05 1001.55 1001.34 1001.42 1001.76 1002.47 1003.22 1004.23 1004.89 1006.02 1006.49 1007.75 1008.63 1009.13 1009.54 1009.66 1009.46 1009.15 1009.12 1009.02 1008.92 1008.77 1008.76 1008.79 1008.91
1007.19 1004.32 1004.46 1005.27 1005.86 1006.27 1006.58 1006.64 1006.19 1005.64 1005.99 1006.24 1005.53 1005.21 1004.10 1003.27 1002.64 1002.26 1001.83 1001.21 1001.09 1001.37 1001.72 1002.42 1002.92 1003.41 1004.00 1004.91 1005.90 1006.96 1007.48 1008.40 1008.78 1008.97 1008.94 1008.89 1008.96 1009.05 1008.96 1008.82 1008.62 1008.54 1008.49 1008.50
1003.84 1001.34 1004.10 1004.40 1004.72 1005.35 1005.47 1005.50 1005.77 1005.58 1006.15 1005.92 1005.76 1005.00 1004.10 1002.36 1001.97 1001.59 1001.07 1000.77 1000.71 1001.30 1002.01 1002.95 1003.44 1003.99 1004.63 1005.56 1006.44 1007.09 1007.46 1008.09 1008.41 1008.53 1008.59 1008.76 1009.03 1009.01 1008.92 1008.77 1008.59 1008.56 1008.34 1008.20
1003.61 1003.14 1002.93 1003.29 1003.21 1003.93 1004.19 1004.74 1005.44 1006.00 1006.85 1007.07 1005.96 1005.35 1004.56 1002.92 1001.88 1001.17 1000.16 1000.15 1000.40 1001.23 1002.57 1003.17 1003.73 1004.47 1005.12 1005.99 1006.36 1006.99 1007.48 1007.94 1008.15 1008.20 1008.50 1008.87 1009.10 1009.16 1009.03 1008.88 1008.73 1008.51 1008.29 1008.12
1001.28 1001.43 1001.88 1001.73 1001.73 1003.06 1003.05 1004.29 1005.29 1006.35 1007.01 1007.48 1006.82 1006.73 1003.77 1003.31 1002.14 1000.78 1000.21 1000.02 1000.34 1001.34 1002.52 1003.23 1003.93 1004.46 1005.25 1006.00 1006.39 1006.93 1007.52 1007.88 1007.98 1008.10 1008.49 1008.76 1008.88 1008.97 1008.95 1008.79 1008.71 1008.42 1008.27 1008.18
1001.29 1000.82 1001.05 1000.56 1001.76 1002.62 1003.62 1004.56 1005.95 1006.76 1007.52 1007.22 1006.80 1006.76 1003.19 1002.84 1001.29 1000.62 1000.04 1000.17 1000.97 1001.86 1002.99 1003.61 1004.22 1004.71 1005.56 1006.33 1006.69 1007.06 1007.48 1007.82 1007.87 1008.18 1008.43 1008.56 1008.69 1008.84 1008.80 1008.76 1008.60 1008.45 1008.31 1008.26
1001.47 1000.98 1000.43 1000.30 1001.27 1002.32 1003.53 1004.93 1007.02 1007.75 1007.86 1006.75 1005.85 1005.72 1002.32 1001.00 1000.30 999.91 999.91 1000.41 1001.53 1002.87 1002.94 1003.68 1004.18 1004.84 1005.72 1006.38 1006.86 1007.09 1007.46 1007.75 1007.94 1008.19 1008.34 1008.47 1008.54 1008.67 1008.63 1008.67 1008.57 1008.47 1008.35 1008.43
1001.37 1001.02 1000.04 999.32 999.65 1000.80 1002.28 1003.79 1005.02 1006.87 1007.01 1006.15 1004.42 1003.17 1001.12 999.53 998.93 999.12 999.49 1000.20 1001.61 1002.71 1003.54 1003.64 1004.34 1004.89 1005.70 1006.30 1006.69 1006.94 1007.38 1007.67 1007.96 1008.11 1008.33 1008.31 1008.41 1008.43 1008.50 1008.52 1008.45 1008.36 1008.35 1008.43
1000.99 1000.13 998.80 998.65 999.03 1000.10 1001.86 1002.79 1003.97 1005.16 1005.64 1005.55 1003.52 1001.60 999.94 998.88 998.71 999.08 999.72 1000.48 1001.77 1002.70 1003.52 1003.73 1004.37 1004.78 1005.64 1006.20 1006.49 1006.77 1007.28 1007.64 1007.83 1008.08 1008.21 1008.28 1008.21 1008.23 1008.42 1008.40 1008.27 1008.28 1008.31 1008.39
1000.88 1000.19 998.64 998.58 998.92 999.41 999.72 1001.79 1003.72 1004.51 1005.27 1005.06 1002.98 1001.43 999.46 998.32 998.21 998.69 999.52 1000.51 1001.84 1002.85 1003.49 1003.82 1004.49 1004.91 1005.57 1005.96 1006.28 1006.76 1007.12 1007.41 1007.71 1008.02 1008.04 1008.16 1008.02 1008.16 1008.37 1008.31 1008.26 1008.30 1008.34 1008.40
1001.91 1000.78 999.34 998.56 997.71 998.39 999.95 1000.73 1001.83 1003.05 1004.09 1003.95 1003.18 1000.67 998.31 997.63 997.71 998.43 999.25 1000.48 1001.79 1002.50 1003.10 1003.62 1004.37 1004.86 1005.39 1005.94 1006.42 1006.76 1007.22 1007.46 1007.70 1007.92 1007.98 1008.14 1008.09 1008.26 1008.45 1008.33 1008.24 1008.38 1008.43 1008.49
1003.73 1002.45 1000.58 998.92 997.98 998.21 998.64 999.25 1000.01 1001.34 1002.35 1002.89 1002.09 1000.10 997.58 997.15 997.33 998.13 998.89 1000.12 1001.55 1002.34 1002.89 1003.56 1004.14 1004.78 1005.41 1005.94 1006.46 1006.81 1007.14 1007.44 1007.59 1007.83 1007.97 1008.22 1008.19 1008.37 1008.55 1008.46 1008.40 1008.45 1008.45 1008.46
1004.90 1003.59 1002.21 1000.39 999.28 998.23 997.89 998.35 999.35 1000.34 1001.34 1001.83 1001.53 999.59 997.28 997.22 997.26 998.19 999.22 1000.12 1001.22 1002.14 1002.94 1003.55 1004.15 1004.77 1005.26 1005.82 1006.25 1006.68 1007.01 1007.27 1007.55 1007.79 1008.05 1008.38 1008.33 1008.58 1008.72 1008.64 1008.50 1008.48 1008.55 1008.68
1005.81 1004.81 1003.59 1001.44 999.46 998.58 998.56 998.62 999.03 999.76 1000.52 1000.36 999.27 998.75 997.75 997.33 997.73 998.48 999.04 1000.11 1001.08 1001.93 1002.66 1003.22 1003.96 1004.46 1005.02 1005.52 1005.96 1006.46 1006.86 1007.09 1007.44 1007.80 1008.19 1008.44 1008.43 1008.69 1008.80 1008.71 1008.59 1008.57 1008.71 1008.91
1006.82 1005.82 1004.37 1002.52 1000.88 999.94 998.70 997.87 997.92 997.97 998.56 998.80 998.24 997.97 997.34 997.09 997.20 997.67 998.35 999.92 1000.95 1001.68 1002.19 1002.74 1003.40 1004.08 1004.78 1005.32 1005.74 1006.22 1006.59 1006.96 1007.38 1007.81 1008.26 1008.48 1008.47 1008.73 1008.86 1008.75 1008.72 1008.77 1008.88 1009.18
1007.50 1006.43 1005.04 1003.03 1000.83 1000.14 999.05 997.99 997.31 997.39 997.57 997.82 997.61 997.09 996.45 996.39 997.12 997.67 997.97 999.18 1000.14 1000.87 1001.41 1002.03 1002.76 1003.49 1004.27 1004.82 1005.36 1005.89 1006.37 1006.83 1007.28 1007.73 1008.17 1008.45 1008.55 1008.77 1009.01 1009.04 1009.04 1009.12 1009.27 1009.46
1007.40 1007.01 1006.01 1004.23 1002.23 1000.51 998.67 996.50 997.10 997.16 996.65 997.03 997.00 995.87 996.30 996.56 996.76 997.20 997.50 998.05 998.73 999.70 1000.25 1000.98 1001.76 1002.57 1003.52 1004.14 1004.72 1005.47 1005.99 1006.60 1007.20 1007.57 1008.02 1008.42 1008.63 1008.83 1009.16 1009.29 1009.40 1009.51 1009.65 1009.73
1006.56 1006.84 1006.39 1004.98 1003.01 1000.66 997.27 995.65 996.24 996.86 996.65 996.78 996.39 996.01 995.91 995.78 995.44 995.64 995.95 996.57 997.72 998.70 999.57 1000.28 1001.15 1002.07 1002.90 1003.56 1004.24 1004.96 1005.73 1006.42 1007.02 1007.51 1007.91 1008.40 1008.69 1008.89 1009.31 1009.62 1009.83 1009.97 1010.10 1010.26
1006.06 1006.68 1006.32 1005.29 1003.51 1000.29 997.67 997.58 997.90 997.32 997.11 996.98 996.84 996.22 995.66 995.21 995.59 995.64 995.50 995.33 995.84 996.78 997.78 998.71 999.90 1001.04 1002.22 1003.03 1003.75 1004.67 1005.67 1006.26 1006.83 1007.32 1007.76 1008.25 1008.63 1008.90 1009.24 1009.76 1010.11 1010.32 1010.34 1010.63
1005.79 1006.24 1006.39 1005.43 1004.24 1001.41 999.77 999.01 998.33 998.26 998.57 998.52 998.18 997.21 996.05 995.76 995.76 994.77 994.33 994.85 995.78 996.80 997.58 998.52 999.55 1000.76 1001.70 1002.60 1003.35 1004.33 1005.28 1005.95 1006.48 1006.90 1007.35 1007.88 1008.40 1008.81 1009.23 1009.63 1010.05 1010.47 1010.65 1010.85
1005.55 1006.39 1006.18 1005.59 1004.54 1002.04 1000.98 999.00 997.99 999.07 1000.60 999.62 999.19 998.38 997.61 995.66 993.94 992.70 993.06 994.02 994.73 995.48 996.72 997.91 999.12 999.98 1000.96 1002.05 1002.94 1003.94 1004.73 1005.30 1005.66 1006.41 1007.07 1007.73 1008.23 1008.66 1009.11 1009.64 1010.09 1010.59 1010.93 1011.17
1005.39 1005.82 1005.93 1005.63 1004.47 1002.76 1001.22 999.84 1000.60 1001.75 1000.82 1000.36 999.55 998.92 997.94 996.42 994.44 993.17 992.85 993.33 994.39 995.27 996.53 997.62 998.55 999.65 1000.50 1001.46 1002.36 1003.34 1004.06 1004.43 1005.35 1006.08 1006.82 1007.49 1008.12 1008.57 1009.18 1009.62 1010.26 1010.76 1011.08 1011.53
1005.91 1005.74 1005.69 1005.54 1003.82 1002.46 1002.18 1001.94 1001.54 1001.42 1001.20 1000.27 999.64 998.52 997.77 996.44 994.91 993.79 992.85 993.15 993.80 994.53 995.45 996.46 997.61 999.01 999.97 1000.78 1001.51 1002.36 1003.10 1004.10 1005.02 1005.86 1006.53 1007.21 1007.93 1008.50 1009.08 1009.61 1010.23 1010.93 1011.30 1011.71
1005.71 1005.77 1005.39 1005.05 1003.05 1002.86 1001.83 1001.44 1001.40 1001.19 1000.63 999.99 999.16 998.10 997.07 995.86 994.69 993.56 993.26 992.75 993.46 994.17 994.97 995.97 997.17 998.36 999.20 999.92 1000.56 1001.10 1002.40 1003.43 1004.51 1005.49 1006.30 1006.98 1007.74 1008.45 1009.05 1009.55 1009.98 1010.60 1011.26 1011.79
1006.46 1005.89 1005.34 1004.73 1003.48 1002.40 1001.42 1001.39 1001.29 1000.55 999.94 999.09 998.32 997.48 996.35 995.41 993.92 993.17 992.75 992.90 992.78 993.42 994.40 995.29 996.18 997.14 997.99 999.02 999.88 1000.72 1001.75 1002.77 1003.97 1005.00 1005.90 1006.72 1007.40 1008.04 1008.84 1009.41 1009.84 1010.23 1010.59 1010.86
1006.15 1005.53 1005.37 1004.80 1003.94 1003.65 1002.54 1001.77 1001.28 1000.62 999.84 999.00 998.42 996.96 995.74 995.08 993.65 992.53 992.10 992.00 992.62 993.01 993.88 994.77 995.58 996.58 997.52 998.38 999.12 1000.02 1000.93 1001.91 1003.07 1004.47 1005.43 1006.16 1006.89 1007.68 1008.29 1009.05 1009.95 1010.23 1010.37 1010.74
Wind_Speed
8 8 22 27 20 7 10 14 10 8 4 6 7 9 18 16 8 11 13 13 14 11 4 6 9 13 13 14 13 12 10 7 4 3 3 2 2 2 2 3 5 4 4 4
7 31 19 14 16 19 12 15 14 16 6 5 11 13 16 16 14 11 15 16 11 6 3 4 7 9 14 14 12 9 9 8 5 3 2 2 1 2 2 2 3 3 4 5
28 26 14 17 19 17 19 21 19 19 4 4 7 11 15 14 7 7 10 11 8 8 7 6 8 10 11 13 11 9 8 8 5 4 2 2 1 1 2 2 1 2 3 3
20 25 21 16 23 18 25 16 15 14 1 5 4 8 13 15 13 8 11 6 8 4 5 7 10 9 13 9 8 8 7 7 5 5 3 2 2 1 2 2 1 4 3 2
14 19 31 23 23 23 13 13 13 9 5 2 2 5 6 4 11 12 10 11 7 7 9 11 12 13 10 9 9 7 7 6 5 5 4 3 2 1 2 1 3 3 3 0
9 5 19 23 14 18 8 6 6 4 3 7 9 7 7 6 16 8 7 3 2 7 8 9 10 11 8 6 7 7 7 5 5 5 4 4 3 2 1 2 3 2 1 1
5 9 2 11 8 7 9 9 0 3 3 6 5 8 15 10 10 11 11 6 7 5 12 14 16 13 10 9 8 6 7 6 5 5 3 3 3 3 0 1 2 2 1 1
7 5 13 11 9 13 22 14 10 9 5 5 10 10 8 20 19 11 8 4 9 9 8 13 13 12 11 10 9 7 7 6 6 5 4 2 3 1 0 2 1 1 1 2
9 8 5 17 8 19 8 15 9 5 2 2 6 6 6 9 8 8 7 7 9 9 9 13 11 11 9 9 9 8 7 5 5 5 4 3 2 1 1 1 1 1 1 2
5 2 8 14 9 18 15 12 7 3 6 5 5 4 6 6 7 3 5 8 7 7 9 12 10 10 7 8 7 7 6 7 5 5 3 3 1 2 2 1 3 2 1 2
5 2 2 11 18 14 5 11 4 7 6 6 1 8 8 7 8 8 8 8 10 13 13 13 10 8 8 6 6 6 6 6 6 5 3 2 3 2 3 2 2 3 2 3
3 3 3 16 6 19 14 9 9 10 10 3 4 8 4 8 6 4 8 10 8 8 11 11 11 9 8 8 7 7 6 6 5 5 3 4 3 2 4 3 4 3 3 4
8 5 3 3 5 4 24 14 9 6 5 13 4 7 2 4 2 4 8 9 10 11 9 8 8 10 10 8 7 6 6 6 5 5 5 4 3 3 3 3 4 4 3 5
8 3 4 6 3 5 14 15 15 7 5 7 21 4 6 6 6 6 8 8 8 9 11 11 9 9 9 9 8 6 6 6 6 5 5 5 4 3 3 3 4 4 4 5
6 4 3 10 11 8 5 19 18 24 19 8 6 8 7 9 11 11 9 9 11 11 12 12 12 10 8 7 6 5 6 6 6 6 5 5 4 4 3 4 4 4 4 5
6 5 8 6 12 8 10 8 20 22 16 15 6 9 8 4 6 6 12 13 12 13 13 13 12 11 11 11 9 7 7 7 6 6 6 5 5 5 4 3 5 4 5 4
3 3 6 5 10 8 9 20 9 13 18 13 12 16 5 4 7 9 10 14 16 15 16 16 16 14 12 12 11 9 8 6 7 6 6 6 5 5 4 4 5 4 4 4
6 4 2 4 5 6 6 7 15 13 7 13 7 7 9 10 12 9 12 16 14 15 14 14 13 11 11 10 11 7 7 9 8 6 6 6 5 6 5 4 4 4 3 4
10 4 3 2 3 7 6 8 7 3 10 8 12 12 8 6 5 4 9 9 19 21 18 16 15 14 10 13 11 10 7 8 8 8 7 6 6 7 7 6 5 2 4 3
10 8 4 1 2 5 1 12 11 7 6 11 11 9 7 7 6 8 11 9 10 10 12 13 13 10 13 11 12 12 9 10 10 9 9 7 7 8 7 6 6 3 2 4
5 5 8 6 3 7 10 19 10 8 5 17 13 12 11 6 10 14 12 12 14 16 16 14 14 15 15 13 14 12 11 12 12 9 8 7 7 7 7 6 4 5 5 5
4 5 4 3 4 6 13 7 9 7 8 10 12 10 13 15 13 5 13 14 14 16 15 15 14 13 12 14 15 13 14 11 9 11 10 9 7 6 6 7 4 5 6 6
3 3 2 3 3 4 8 5 6 4 10 10 14 15 14 16 13 9 9 10 15 18 17 17 16 13 13 15 15 15 13 11 11 11 10 10 9 7 7 8 7 4 4 5
0 4 3 2 2 12 15 8 6 11 14 16 14 16 14 15 14 12 6 9 12 13 15 15 16 16 15 16 16 14 14 14 13 11 10 9 10 7 6 4 6 6 5 4
2 2 0 5 6 13 2 12 14 19 19 19 19 16 14 11 15 12 8 8 13 14 13 16 16 15 17 16 15 12 15 15 13 11 9 9 8 10 8 6 6 7 6 8
3 2 1 3 6 6 10 13 18 17 19 20 17 18 16 9 12 8 8 10 10 14 13 14 15 13 14 16 15 15 17 17 15 12 9 9 8 7 8 8 4 7 3 10
Wind_Direction
174 193 216 208 207 192 200 231 240 243 192 225 237 259 272 280 249 260 268 269 272 263 222 165 154 147 141 142 146 145 145 172 153 179 205 227 239 286 272 251 241 240 230 209
167 220 214 189 192 207 202 224 239 269 227 205 278 274 283 284 270 247 264 275 266 245 190 128 134 138 152 147 138 140 152 165 187 186 193 171 168 266 263 263 257 258 248 217
201 224 198 186 192 197 216 218 233 244 22 289 314 294 286 282 262 265 257 254 262 257 193 138 131 136 128 137 148 154 155 168 187 177 117 51 2 338 338 332 354 303 278 241
231 231 190 194 209 189 218 209 233 250 205 241 108 285 288 302 298 264 287 283 266 178 128 142 134 131 140 147 137 146 154 170 174 147 111 147 166 187 250 257 281 293 309 262
210 191 210 206 197 191 228 193 215 241 227 242 202 274 256 295 289 280 280 279 276 150 156 147 146 141 139 144 152 151 159 164 153 134 146 153 138 213 272 324 308 306 320 56
202 203 200 214 196 200 162 91 57 48 112 247 229 201 242 214 235 257 261 285 72 127 124 121 134 134 129 131 140 151 161 165 148 149 163 154 156 154 14 334 313 320 329 99
165 230 249 157 130 148 138 116 232 308 267 227 201 196 245 265 240 230 251 241 139 151 142 148 153 148 143 155 160 162 155 162 166 165 164 191 178 178 148 322 290 329 356 120
161 195 193 179 179 168 181 167 161 187 204 234 206 214 241 223 241 241 253 181 145 149 168 155 154 146 157 162 164 158 158 168 170 173 193 190 213 168 283 294 292 34 106 140
187 232 164 180 169 164 189 210 163 131 211 117 234 272 289 219 212 219 189 149 162 154 163 153 154 152 158 164 170 161 171 167 174 186 183 197 192 75 324 300 109 64 125 154
261 174 205 193 150 192 178 148 167 198 192 225 281 274 224 183 220 250 191 181 159 141 150 155 163 157 163 167 166 160 177 172 182 174 187 207 93 50 64 57 83 63 48 151
345 157 292 139 199 167 136 178 135 153 148 166 202 261 218 199 196 200 210 176 164 165 165 163 164 163 159 153 160 174 171 171 178 162 187 174 95 62 67 68 63 51 59 136
314 305 211 215 147 197 203 178 163 192 190 182 151 277 244 232 217 234 187 156 158 154 160 161 164 150 156 166 166 182 180 185 181 171 167 132 113 87 65 63 57 58 68 124
346 313 134 15 266 202 199 197 158 106 110 203 144 248 331 287 267 250 183 153 150 152 147 146 149 161 170 172 175 180 185 191 164 160 150 127 133 117 76 78 68 56 93 104
329 271 259 200 266 105 204 201 200 150 157 163 220 211 241 265 214 191 147 142 142 152 158 163 164 169 173 175 178 181 183 178 153 154 144 139 170 134 121 99 93 74 101 107
353 274 264 276 272 307 325 202 200 210 214 182 185 205 243 236 210 198 148 127 143 160 169 174 173 172 169 168 176 179 169 166 155 155 148 163 154 131 123 96 89 86 99 105
323 289 348 302 288 269 270 254 217 210 218 223 186 250 210 279 98 156 162 156 170 178 180 177 177 172 173 178 182 180 168 168 156 162 158 155 136 134 128 106 97 90 88 96
180 309 352 293 341 312 254 237 226 224 214 183 193 222 164 199 205 194 168 176 179 182 181 181 180 180 177 180 173 185 172 149 162 165 155 156 147 135 140 126 94 88 89 110
187 153 237 269 318 208 251 188 197 212 228 231 249 183 192 210 220 192 189 181 173 178 185 180 176 177 179 174 170 164 146 162 163 169 157 154 148 135 128 115 105 102 85 101
203 127 261 225 265 288 316 45 2 154 241 188 206 233 230 219 78 276 212 182 183 182 184 180 172 174 160 166 164 158 152 157 160 172 166 163 153 145 142 135 127 91 104 95
203 203 218 269 229 229 277 323 314 253 218 8 349 301 190 144 159 235 187 179 165 163 167 166 161 156 161 168 157 157 168 161 176 177 177 163 158 152 154 150 140 117 98 102
92 135 199 225 274 286 343 321 310 138 289 328 328 317 300 205 202 212 174 186 176 170 164 153 158 165 172 160 158 167 168 185 185 167 157 154 159 158 155 144 136 130 113 101
117 169 180 197 237 273 359 13 54 272 297 307 309 307 296 293 290 204 181 180 152 157 151 163 161 169 160 162 165 167 182 188 155 157 160 161 156 158 147 143 121 125 126 116
155 194 126 255 286 329 326 299 271 275 303 307 308 303 294 285 274 256 192 161 170 169 169 169 167 159 160 168 176 175 184 156 155 159 164 163 155 154 154 148 141 128 135 136
69 177 213 268 28 324 307 313 303 323 322 313 310 302 294 278 271 251 237 163 168 170 166 166 158 168 171 175 180 185 160 161 160 167 166 157 160 150 152 149 157 149 155 151
295 281 212 274 309 319 197 339 330 322 321 324 325 318 302 287 266 226 202 188 173 170 158 165 171 176 177 173 177 160 159 158 164 168 164 165 165 165 163 170 172 176 187 175
204 199 251 267 260 275 283 307 321 320 319 323 322 318 321 304 289 210 200 178 174 167 163 169 173 169 168 173 173 163 162 164 160 164 167 172 164 170 168 165 147 47 186 195